Regional Weather Roundup
Issued by NWS Huntsville, AL

Home | Current Version | Previous Version | Text Only | Print | Product List | Glossary On
Versions: 1 2 3 4 5 6 7 8 9 10 11 12 13 14 15 16 17 18 19 20 21 22 23 24 25 26 27 28 29 30 31 32 33 34 35 36 37 38 39 40 41 42 43 44 45 46 47 48 49 50
350
ASUS44 KHUN 011210
RWRHUN

WEATHER ROUNDUP FOR THE TENNESSEE VALLEY
NATIONAL WEATHER SERVICE HUNTSVILLE AL
700 AM CDT SAT OCT 01 2016

ALZ001>004-011300-
NORTHWEST ALABAMA

CITY           SKY/WX    TMP DP  RH WIND       PRES   REMARKS
COURTLAND HCN    N/A     52 N/A N/A CALM        N/A
RUSSELLVILLE     N/A     48 N/A N/A MISG        N/A
SHOALS AIRPORT CLEAR     51  48  89 CALM      30.09R
6HR MIN TEMP:  50; 6HR MAX TEMP:  57;

SHOALS TVA RES   N/A     50 N/A N/A MISG        N/A
$$

ALZ005>007-016-011300-
NORTH CENTRAL ALABAMA

CITY           SKY/WX    TMP DP  RH WIND       PRES   REMARKS
CULLMAN AG STN   N/A     46 N/A N/A CALM        N/A
DECATUR AP     CLEAR     49  49 100 CALM      30.09R
6HR MIN TEMP:  48; 6HR MAX TEMP:  52;

HUNTSVILLE AP  CLEAR     53  49  86 E3        30.08R
6HR MIN TEMP:  52; 6HR MAX TEMP:  57;

MERIDIANVILLE  CLEAR     48  43  81 CALM      30.09R
REDSTONE ARSN  CLEAR     51  50  97 CALM      30.07R
VINEMONT AP    FAIR      46  46  97 CALM      30.11R
$$

ALZ008>010-011300-
NORTHEAST ALABAMA

CITY           SKY/WX    TMP DP  RH WIND       PRES   REMARKS
ALBERTVILLE    CLEAR     50  50 100 CALM      30.08R
FORT PAYNE     CLEAR     45  43  93 CALM      30.09R
SCOTTSBORO AP  CLEAR     48  48 100 CALM      30.11R
SCOTTSBORO HCN   N/A     46 N/A N/A MISG        N/A
VALLEY HEAD      N/A     45 N/A N/A MISG        N/A
$$

TNZ076-096-097-011300-
SOUTHEASTERN MIDDLE TENNESSEE

CITY           SKY/WX    TMP DP  RH WIND       PRES   REMARKS
TULLAHOMA      MOCLDY    46  46 100 CALM      30.09R VSB 3/4
WINCHESTER     PTCLDY    52  48  87 CALM      30.09R
$$

...SURROUNDING SITES...

CITY           SKY/WX    TMP DP  RH WIND       PRES   REMARKS
ATLANTA        CLEAR     56  49  77 NW3       30.08R
ANNISTON       CLEAR     49  46  90 CALM      30.09R
BIRMINGHAM     CLEAR     54  50  86 CALM      30.10R
CHATTANOOGA    PTCLDY    52  48  86 W3        30.09S
CORINTH          N/A     50  48  93 CALM      30.08R FOG
DALTON         CLEAR     45  45 100 CALM      30.10R
GADSDEN        CLEAR     47  46  97 CALM      30.10R
GOLDEN TRNGL   CLEAR     52  45  76 CALM      30.08R
HALEYVILLE     FAIR      48  47  96 CALM      30.11R
JACKSON TN     CLEAR    N/A N/A N/A S3        30.08R HAZE
MEMPHIS        PTCLDY    58  57  97 CALM      30.08S
NASHVILLE      PTCLDY    55  53  93 S5        30.06R FOG
OXFORD MS      FAIR      48  48 100 CALM      30.10R
ROME           CLEAR     48  45  89 CALM      30.09R
SAVANNAH       CLEAR     50  50 100 CALM      30.08R
TUPELO         CLEAR     53  51  93 S3        30.08R
TUSCALOOSA     CLEAR     50  49  96 CALM      30.09R
$$

...GULF COAST WEATHER...

CITY           SKY/WX    TMP DP  RH WIND       PRES   REMARKS
GULFPORT       CLEAR     60  58  92 CALM      30.07R
PASCAGOULA     CLEAR     54  54 100 CALM      30.07R
MOBILE         PTCLDY    57  56  96 CALM      30.08R
GULF SHORES    SUNNY     57  57  99 CALM      30.06R
PENSACOLA      CLEAR     58  56  93 NW3       30.06R
DESTIN         CLEAR     66  58  75 N3        30.07R
PANAMA CITY    CLEAR     62  55  80 E3        30.07R
APPALACHICOLA  CLEAR     61  57  87 NE6       30.07R
$$





USA.gov is the U.S. government's official web portal to all federal, state and local government web resources and services.